Hourly Data Report for May 21, 2021

KUGAARUK CLIMATE
NUNAVUT
Current Station Operator: ECCC - MSC

68°32'15.060" N
89°47'47.020" W
15.80 m
2303094
71407
NBB

Download Data

Hourly Data (May 2021)
Hourly Data Report for May 21, 2021
TIME
LST
Temp Definition
°C
Dew Point Definition
°C
Rel Hum Definition
%
Precip. Amount Definition
mm

Wind Dir Definition
10's deg

Wind Spd Definition
km/h
Visibility Definition
km
Stn Press Definition
kPa
Hmdx Definition


Wind Chill Definition


Weather Definition


00:00 -14.1 -16.0 85 0.0 24 15   101.06   -22 LegendNANA
01:00 -13.0 -15.4 83 0.0 25 16   101.05   -21 LegendNANA
02:00 -13.5 -15.9 82 0.0 25 17   101.05   -22 LegendNANA
03:00 -12.3 -14.4 84 0.0 23 22   101.03   -21 LegendNANA
04:00 -11.6 -13.9 83 0.0 23 22   101.03   -20 LegendNANA
05:00 -10.6 -13.7 78 0.0 28 13   101.02   -17 LegendNANA
06:00 -10.7 -13.7 79 0.2 27 22   101.03   -19 LegendNANA
07:00 -11.0 -13.8 80 0.0 27 23   101.02   -20 LegendNANA
08:00 -10.8 -14.7 73 0.0 32 13   101.06   -17 LegendNANA
09:00 -10.4 -14.4 73 0.0 32 28   101.08   -20 LegendNANA
10:00 -9.3 -12.9 75 0.0 32 24   101.15   -18 LegendNANA
11:00 -9.1 -12.4 77 0.0 32 33   101.17   -19 LegendNANA
12:00 -8.7 -12.0 77 0.0 32 38   101.26   -19 LegendNANA
13:00 -8.9 -12.0 79 0.0 32 41   101.36   -19 LegendNANA
14:00 -8.6 -12.1 76 0.0 34 33   101.47   -18 LegendNANA
15:00 -9.0 -12.7 75 0.0 34 30   101.56   -18 LegendNANA
16:00 -9.1 -13.1 73 0.0 34 29   101.64   -18 LegendNANA
17:00 -8.9 -13.3 70 0.0 33 27   101.70   -18 LegendNANA
18:00 -8.7 -13.1 71 0.0 32 22   101.74   -17 LegendNANA
19:00 -9.8 -13.1 77 0.0 28 20   101.78   -18 LegendNANA
20:00 -10.9 -13.2 83 0.0 28 20   101.77   -19 LegendNANA
21:00 -11.2 -13.6 82 0.0 25 22   101.77   -20 LegendNANA
22:00 -11.1 -14.4 77 0.0 27 21   101.78   -19 LegendNANA
23:00 -11.3 -14.3 79 0.0 27 31   101.77   -21 LegendNANA

Notes on Data Quality.

Legend

  • E = Estimated
  • M = Missing
  • NA = Not Available*
  • [empty] = Indicates an unobserved value
Date modified: